Current weather by "City, St" or "zip code"  
 
Advertise Here

Current Conditions: Houston Southwest Airport, TX

Overcast


70.0 F

Last Updated on Jan 25 2021, 2:55 am CST
Humidity: 96%
Wind Speed: S 9.2 G 18.4 mph
Barometer 29.75 in
Dewpoint: 68.7 F
Visibility: 7.00 mi
Precip: --
Heat Index: NA
Wind Chill: NA
Current conditions at:

Houston Southwest Airport, TX (KAXH)

Lat: 29.50613 Lon: 95.47692

Local Radar Image active severe weather and emergency alerts image image weather storm and storm spotter reports image weather observation monitoring service image
Local
Radar
Active
Alerts
Storm Reports Obs
Monitoring

Sign-up For Email & Text Message Weather Alert Notification Services


Advertise Here

Observation History for Houston Southwest Airport, TX


Time Wind
(mph)
Vis
(mi)
Weather Precip (in) Temperature (F) Relative
Humidity
Wind
Chill
(F)
Heat
Index
(F)
Pressure
Air Dwpt altimeter
(in)
sea level
(mb)
Rmks
2:55 am CST S 9.2 G 18.4 7.00 Overcast -- 70.0 68.7 96% NA NA 29.75 M
1:55 am CST S 9.2 G 16.1 7.00 Overcast -- 70.0 68.9 96% NA NA 29.76 M
12:55 am CST SE 10.4 G 18.4 10.00 Overcast -- 71.0 69.1 95% NA NA 29.77 M
11:55 pm CST S 10.4 7.00 Overcast -- 71.0 69.3 95% NA NA 29.81 M
10:55 pm CST S 13.8 G 20.7 10.00 Overcast -- 70.0 68.9 95% NA NA 29.80 M
9:55 pm CST S 10.4 G 18.4 7.00 Overcast -- 70.0 68.9 96% NA NA 29.81 M
8:55 pm CST S 9.2 10.00 Overcast -- 70.0 68.5 95% NA NA 29.82 M
7:55 pm CST S 8.1 10.00 Overcast -- 69.0 68.0 95% NA NA 29.83 M
6:55 pm CST SE 6.9 10.00 Overcast -- 70.0 68.7 95% NA NA 29.85 M
5:55 pm CST S 8.1 10.00 Overcast -- 71.0 68.7 91% NA NA 29.86 M
4:55 pm CST S 10.4 G 16.1 10.00 Overcast -- 73.0 68.4 86% NA NA 29.88 M
3:55 pm CST S 12.7 G 21.9 10.00 Overcast -- 74.0 68.0 80% NA NA 29.88 M
2:55 pm CST S 9.2 G 18.4 10.00 Overcast -- 75.0 68.9 81% NA NA 29.88 M
1:55 pm CST S 9.2 G 20.7 10.00 Overcast -- 78.0 66.7 69% NA NA 29.88 M
12:55 pm CST S 9.2 10.00 Partly Cloudy -- 77.0 70.0 80% NA NA 29.91 M
11:55 am CST S 9.2 10.00 Overcast -- 72.0 70.7 95% NA NA 29.96 M
10:55 am CST S 8.1 G 18.4 7.00 Overcast -- 71.0 69.1 95% NA NA 29.96 M
9:55 am CST S 8.1 G 16.1 1.25 Fog/Mist -- 69.0 67.1 95% NA NA 29.97 M
8:55 am CST N 0.0 0.25 Fog -- 66.0 64.4 96% NA NA 29.98 M
7:55 am CST N 0.0 0.25 Fog -- 63.0 61.9 95% NA NA 29.97 M
6:55 am CST N 0.0 1.00 Drizzle -- 62.0 61.0 96% NA NA 29.97 M
5:55 am CST N 0.0 1.00 Fog/Mist -- 62.0 60.4 95% NA NA 29.96 M
4:55 am CST E 3.5 0.25 Fog -- 61.0 60.1 96% NA NA 29.95 M
3:55 am CST N 0.0 0.25 Fog -- 61.0 59.9 96% NA NA 29.97 M

Regional Weather Observation


Houston, Sugar Land Municipal / Hull Field Airport, TX (KSGR)

Overcast
74.0 F

John Dunn Helistop, TX (KMCJ)

Overcast
70.0 F

Houston Southwest Airport, TX (KAXH)

Overcast
70.0 F

Houston, Houston Hobby Airport, TX (KHOU)

Overcast
72.0 F

Houston, Pearland Regional Airport, TX (KLVJ)

Overcast
71.0 F

Houston / Ellington, TX (KEFD)

Overcast
70.0 F